#timestamp,LO_Frequency,Hit 
1506178815.4,286046998.2,N
1506178835.3,286047000.9,N
1506178855.1,286046999.7,N
1506178856.0,286046999.7,N
1506178875.8,286047000.9,N
1506178895.7,286046999.9,N
1506178915.5,286047000.2,N
1506178935.3,286047000.3,N
1506178955.1,286047000.7,N
1506178975.9,286047000.3,N
1506178995.7,286047002.8,N
1506179015.5,286046998.5,N
1506179035.4,286046998.6,N
1506179055.2,286047000.9,N
1506179075.0,286046999.1,N
1506179075.9,286046999.1,N
1506179095.8,286046997.9,N
1506179115.6,286046997.8,N
1506179135.4,286046995.1,P
1506179155.3,286046996.5,N
1506179175.1,286046999.0,N
1506179195.8,286046998.4,N
1506179215.7,286046997.8,N
1506179235.5,286046996.8,N
1506179255.3,286046996.4,N
1506179275.2,286046994.7,P
1506179295.9,286046996.5,N
1506179315.7,286046999.2,N
1506179335.6,286046996.9,N
1506179355.4,286047002.5,N
1506179375.2,286046997.4,N
1506179395.1,286047001.4,N
1506179396.0,286047001.4,N
1506179415.8,286047001.8,N
1506179435.6,286047007.2,N
1506179455.5,286047008.7,N
1506179475.3,286047008.4,N
1506179495.1,286047007.7,N
1506179515.8,286047009.9,N
1506179535.7,286047010.2,N
1506179555.5,286047006.1,N
1506179575.3,286047004.5,N
1506179595.2,286047008.4,N
1506179615.9,286047010.8,N
1506179635.7,286047008.1,N
1506179655.6,286047008.0,N
1506179675.4,286047010.5,N
1506179695.2,286047011.6,N
1506179715.1,286047011.6,N
1506179716.0,286047011.6,N
1506179735.8,286047011.4,N
1506179755.6,286047012.1,N
1506179775.4,286047009.3,N
1506179795.3,286047012.2,N
1506179815.1,286047010.2,N
1506179835.8,286047007.9,N
1506179855.7,286047010.0,N
1506179875.5,286047011.8,N
1506179895.3,286047011.8,N
1506179915.2,286047010.0,N
1506179935.9,286047009.4,N
1506179955.7,286047011.8,P
1506179975.6,286047001.3,N
1506179995.4,286047001.2,N
1506180015.2,286047002.3,N
1506180035.1,286047001.8,N
1506180036.0,286047001.8,N
1506180055.8,286047001.9,N
1506180075.6,286047002.5,N
1506180095.5,286046999.9,N
1506180115.3,286047001.2,N
1506180135.1,286046999.9,N
1506180155.8,286047000.3,N
1506180175.7,286047000.5,N
1506180195.5,286047002.6,N
1506180215.3,286046998.2,N
1506180235.2,286047002.7,N
1506180255.9,286047000.8,N
1506180275.7,286046998.7,N
1506180295.6,286047000.3,N
1506180315.4,286047000.6,N
1506180335.2,286046998.3,N
1506180355.1,286046999.7,N
1506180356.0,286046999.7,N
1506180375.8,286047001.3,N
1506180395.6,286047003.5,N
1506180415.5,286047003.5,N
1506180435.3,286047003.2,N
1506180455.1,286047002.9,N
1506180475.8,286047005.5,N
1506180495.7,286047004.2,N
1506180515.5,286047003.4,N
1506180535.3,286047006.0,P
1506180555.2,286046997.8,N
1506180575.0,286046995.7,N
1506180575.9,286046995.7,N
1506180595.7,286046994.8,N
1506180615.6,286046994.1,N
1506180635.4,286046997.7,N
1506180655.2,286046999.3,N
1506180675.1,286047002.1,N
1506180676.0,286047002.1,N
1506180695.8,286047004.3,N
1506180715.6,286047005.6,N
1506180735.5,286047009.0,N
1506180755.3,286047008.4,N
1506180775.1,286047009.2,N
1506180795.9,286047001.5,N
1506180815.7,286047004.3,N
1506180835.5,286047003.8,N
1506180855.3,286047004.3,N
1506180875.2,286047003.6,N
1506180895.0,286047005.5,N
1506180895.9,286047005.5,N
1506180915.7,286047008.9,N
1506180935.6,286047010.3,N
1506180955.4,286047007.5,N
1506180975.2,286047007.4,N
1506180995.1,286047006.3,N
1506180996.0,286047006.3,N
1506181015.8,286047006.7,N
1506181035.6,286047004.7,N
1506181055.5,286047004.8,N
1506181075.3,286047008.6,N
1506181095.1,286047010.2,N
1506181115.9,286047009.6,N
1506181135.7,286047010.1,N
1506181155.5,286047006.9,N
1506181175.4,286047006.1,N
1506181195.2,286047007.5,N
1506181215.0,286047004.6,N
1506181215.9,286047004.6,N
1506181235.8,286047007.0,P
1506181255.6,286046999.9,N
1506181275.4,286047002.8,N
1506181295.3,286047002.7,N
1506181315.1,286047000.2,N
1506181316.0,286047000.2,N
1506181335.8,286046999.2,N
1506181355.7,286047000.4,N
1506181375.5,286047002.6,N
1506181395.3,286047002.8,N
1506181415.1,286047002.7,N
1506181435.9,286046996.6,N
1506181455.7,286047000.9,N
1506181475.5,286046997.0,N
1506181495.4,286046995.0,N
1506181515.2,286046995.0,N
1506181535.0,286046996.9,N
1506181535.9,286046996.9,N
1506181555.8,286046995.1,N
1506181575.6,286046995.5,N
1506181595.4,286046998.8,N
1506181615.3,286046996.7,N
1506181635.1,286046996.6,N
1506181636.0,286046996.6,N
1506181655.8,286046995.9,N
1506181675.7,286046996.1,N
1506181695.5,286046994.6,N
1506181715.3,286046993.5,N
1506181735.1,286046992.0,N
1506181755.9,286046991.9,N
1506181775.7,286046991.9,N
1506181795.5,286046990.6,N
1506181815.4,286046990.9,N
1506181835.2,286046991.4,N
1506181855.0,286046990.9,N
1506181855.9,286046990.9,N
1506181875.8,286046989.3,N
1506181895.6,286046990.4,N
1506181915.4,286046994.7,N
1506181935.3,286046995.7,N
1506181955.1,286046994.2,N
1506181956.0,286046994.2,N
1506181975.8,286046996.4,N
1506181995.7,286046992.3,P
1506182015.5,286046998.6,N
1506182035.3,286047000.9,N
1506182055.2,286047000.6,N
1506182075.9,286047000.9,N
1506182095.7,286047004.3,N
1506182115.6,286047002.2,N
1506182135.4,286047001.8,N
1506182155.2,286047005.3,N
1506182175.1,286047003.6,N
1506182176.0,286047003.6,N
1506182195.8,286047002.7,N
1506182215.6,286047001.4,N
1506182235.5,286047002.6,N
1506182255.3,286047002.0,N
1506182275.1,286047002.2,N
1506182295.8,286046999.8,N
1506182315.7,286047002.2,N
1506182335.5,286047003.5,N
1506182355.3,286047005.8,N
1506182375.2,286047008.7,N
1506182395.9,286047005.3,N
